Location: Unspecified
(0.0000°N, 0.0000°E)
Time: 13:30:06
(UTC+00:00)

ADRAS-J - Pass Details

Date: 17 May 2025
Orbit: 544 x 592 km, 98.2° (Epoch: 16 June)

Event Time Altitude Azimuth Distance (km) Brightness Sun altitude
Rises 04:52:50 0° 20° (NNE) 2,794 ? -15.0°
Reaches altitude 10° 04:55:01 10° 25° (NNE) 1,903 ? -14.5°
Maximum altitude 04:59:02 53° 102° (ESE) 728 ? -13.5°
Drops below altitude 10° 05:03:07 10° 179° (S) 1,924 ? -12.6°
Sets 05:05:19 0° 184° (S) 2,828 ? -12.0°
